If you wish to contribute or participate in the discussions about articles you are invited to join SKYbrary as a registered user

 Actions

Ahvaz International Airport

From SKYbrary Wiki

OIAW
Airport
ICAO: OIAW – IATA: AWZ
Summary
Name Ahvaz International Airport
Region Middle East
Territory Iran IR.gif
Location Ahvaz, Khuzestan
Serving Ahvas
Elevation 20.117 m
66 ft20.117 m
Coordinates 31° 20' 15.00" N, 48° 45' 37.00" E
Runways
Designator Length Width Surface ROPS
12/30 3398 m11,148.294 ft
45 m147.638 ft
ASP yes/yes


METAR
Observation OIAW 161400Z 15006KT CAVOK 34/03 Q1007 NOSIG
Station Ahwaz
Date/Time 16 April 2019 14:00:00
Wind direction 150°
Wind speed 06 kts
Lowest cloud amount clouds and visibility OK
Temperature 34°C
Dew point 3°C
Humidity 14%
QNH 1007 hPa
Weather condition n/a

Ahvaz (or Ahwaz) airport serves the city of Ahvaz, west Iran.

Climatology

Hot Desert Climate (Köppen climate classification BWh)

Maps

Terrain

Loading map...

Airport Layout

Loading map...


Accidents & Serious Incidents at or in vicinity of OIAW

None on SKYbrary